Location: Espiute
(43.3591°N, 0.9159°W)
Time: 13:27:56
(UTC+00:00)

Daily predictions for brighter satellites

Satellite Brightness Start Highest point End
(mag) Time Altitude Azimuth Time Altitude Azimuth Time Altitude Azimuth
USA 229 DEB 4.3 19:34:02 10° NNW 19:41:30 61° NE 19:49:41 10° SE
USA 229 4.3 19:34:06 10° NNW 19:41:33 60° NE 19:49:44 10° SE
Cosmos 1447 Rocket 4.5 19:38:04 10° N 19:44:15 73° E 19:50:21 10° SSE
SJ-6B 4.0 19:41:38 10° S 19:44:56 38° W 19:48:14 10° NNW
CZ-4B R/B 3.9 19:41:22 10° SSE 19:45:18 63° ENE 19:49:18 10° N
CZ-4C R/B 2.2 19:44:42 10° S 19:48:11 31° ESE 19:52:22 10° NE
Meteor 2-3 Rocket 4.3 19:44:27 10° N 19:49:46 42° ENE 19:55:05 10° SE
Cosmos 1833 Rocket 2.7 19:45:41 10° SSW 19:51:16 79° ESE 19:56:54 10° NNE
CSL-04 Rocket 3.8 19:45:51 10° SSE 19:51:23 89° WSW 19:56:53 10° NNW
CZ-4B DEB 4.4 19:46:33 10° SSE 19:51:57 60° ENE 19:57:23 10° N
ATLAS 2AS CENTAUR R/B 3.1 19:45:31 10° SW 19:52:29 71° NW 19:59:20 10° NNE
Cosmos 292 Rocket 4.5 19:48:13 10° N 19:52:41 38° ENE 19:57:04 10° SE
ARIANE 6 FM1 Upper Stage 3.9 19:49:06 10° NW 19:52:43 34° WSW 19:56:20 10° S
CZ-4B R/B 3.7 19:49:07 10° SE 19:54:29 46° ENE 19:59:50 10° N
Okean-O 4.1 19:53:22 10° ESE 19:56:38 21° ENE 19:59:53 10° NNE
Cosmos 1455 Rocket 4.4 19:56:56 10° SE 20:00:18 22° E 20:03:40 10° NE
Gbstr 26 Del rocket 4.4 19:56:36 10° NW 20:01:38 39° NNE 20:05:48 10° E
MetOp-B 4.4 19:57:12 10° SSE 20:02:23 54° ENE 20:07:37 10° N
SL-4 R/B 1.9 19:58:57 10° NW 20:02:46 75° NNE 20:06:19 12° ESE
Cosmos 2173 Rocket 4.1 20:01:08 10° SSE 20:07:04 55° E 20:13:06 10° NNE
Okean 1 Rocket 3.3 20:03:00 10° SSE 20:07:12 51° E 20:11:30 10° NNE
ADEOS 3.8 20:03:09 10° SE 20:08:11 53° ENE 20:13:15 10° N
Cosmos 332 Rocket 3.8 20:03:30 10° NNW 20:08:17 87° WSW 20:13:01 10° SSE
PAYLOAD B 4.2 20:09:37 10° SSE 20:15:07 82° ENE 20:20:40 10° NNW
Helios 1A Rocket 2.2 20:13:44 10° NNE 20:16:54 90° NW 20:20:02 10° SSW
ERS-1 Rocket 3.0 20:17:58 10° SSE 20:22:58 87° WSW 20:28:01 10° NNW
SKYMED 3 4.2 20:22:39 10° NNE 20:26:37 74° ESE 20:30:32 10° S
SJ 16-02 3.9 20:25:52 10° NW 20:28:37 17° W 20:31:21 10° SW
ATLAS 3B R/B 3.0 20:21:11 10° NW 20:29:00 80° NE 20:34:58 17° SE
DELTA 2 R/B (1) 4.2 20:24:33 10° SW 20:29:29 33° SSE 20:33:42 13° E
Cosmos 2082 Rocket 2.9 20:24:42 10° SSE 20:29:41 32° ESE 20:34:42 10° NE
Cosmos 1452 Rocket 3.6 20:24:38 10° S 20:29:43 56° ESE 20:34:50 10° NNE
DEBRIS 3.1 20:27:26 10° WSW 20:29:53 65° NNW 20:35:40 10° ENE
USA 276 3.2 20:29:01 10° WNW 20:29:16 14° WNW 20:29:16 14° WNW
Cosmos 1741 Rocket 4.2 20:27:44 10° NNW 20:32:59 58° ENE 20:36:43 19° SE
Meteor 1-31 Rocket 4.2 20:31:03 10° SSW 20:34:10 31° W 20:37:18 10° NNW
Sich 1 Rocket 3.5 20:30:26 10° S 20:34:46 89° ESE 20:39:10 10° N
SL-08 R/B 3.3 20:30:12 10° NNE 20:35:03 74° ESE 20:39:48 10° S
Cosmos 1331 Rocket 4.0 20:31:20 10° SSW 20:36:35 89° W 20:41:50 10° NNE
Cosmos 1802 Rocket 4.0 20:30:33 10° S 20:36:41 66° E 20:42:46 10° NNE
Cosmos 968 Rocket 3.6 20:33:14 10° NNW 20:38:29 78° WSW 20:42:54 15° SSE
YAOGAN 11 4.2 20:37:06 10° NNE 20:41:27 55° E 20:45:19 13° S
Cosmos 1302 Rocket 4.2 20:41:09 10° S 20:46:00 46° ESE 20:50:57 10° NNE
MOS 1-B 4.3 20:44:42 18° SSE 20:49:03 73° ENE 20:54:51 10° N
CZ-2C R/B 4.4 20:49:47 11° ENE 20:49:47 11° ENE 20:50:32 10° NE
Terra 2.5 20:46:43 10° S 20:51:16 51° W 20:55:51 10° NNW
Cosmos 1697 Rocket 3.2 20:46:04 10° NNW 20:51:33 55° WSW 20:56:07 15° S
NOSS 3-3 (A) 4.0 20:47:28 10° S 20:52:02 37° ESE 20:57:17 10° NE
Milstar 3 4.1 20:47:00 10° WSW 20:52:45 27° S 20:56:26 20° SE
Cosmos 1459 Rocket 4.3 20:46:59 10° SSW 20:53:14 71° W 20:59:24 10° N
COSMOS 2406 4.2 20:54:43 23° ESE 20:55:51 25° ESE 21:00:25 10° NE
SL-16 R/B 4.0 20:53:15 10° N 20:57:21 20° NE 21:00:34 13° E
Cosmos 2228 2.9 20:58:22 28° SSE 21:00:21 59° E 21:04:25 10° NNE
USA 186 1.1 21:00:42 62° S 21:01:04 86° WSW 21:03:46 10° NNW
USA 306 1.6 20:57:45 10° SW 21:00:59 65° SSE 21:00:59 65° SSE
Cosmos 1782 2.3 21:00:48 31° S 21:02:22 77° E 21:05:54 10° N
Cosmos 1743 1.9 20:59:32 10° N 21:02:33 88° W 21:03:16 49° S
SPOT 3 Rocket 3.8 21:02:10 28° SE 21:04:39 53° ENE 21:09:38 10° N
Cosmos 1850 Rocket 4.1 21:01:20 10° NNW 21:06:28 69° WSW 21:09:34 24° S
Cosmos 44 Rocket 4.0 21:03:42 10° SW 21:08:40 58° NW 21:13:47 10° NNE
Cosmos 2333 Rocket 3.8 21:08:24 10° N 21:12:50 23° NE 21:15:41 16° E
Cosmos 1607 3.8 21:07:08 10° SSW 21:13:16 84° ESE 21:19:33 10° NE
Cosmos 1626 Rocket 4.3 21:09:47 10° N 21:13:50 36° ENE 21:14:41 33° ESE
CZ-4B R/B 2.5 21:13:31 50° E 21:13:52 53° ENE 21:17:10 10° N
CZ-4 R/B 4.1 21:16:06 10° WSW 21:17:05 11° W 21:18:04 10° WNW
Okean O Rocket 2.1 21:15:58 24° SSW 21:18:20 54° W 21:22:33 10° NNW
ISS -2.8 21:16:09 10° WSW 21:19:24 48° NNW 21:22:40 10° NE
Cosmos 2233 Rocket 3.9 21:14:27 16° S 21:19:31 87° E 21:25:44 10° N
Cosmos 1980 Rocket 2.3 21:14:33 10° NNW 21:20:15 74° WSW 21:23:05 31° S
NOSS 3-3 (C) 3.7 21:17:31 23° S 21:20:28 52° ESE 21:26:11 10° NE
USA 305 3.4 21:22:52 10° NW 21:26:42 39° NNE 21:27:30 34° ENE
Cosmos 1933 4.3 21:27:23 29° ENE 21:27:23 29° ENE 21:30:08 10° NNE
IRS-1C Rocket 4.1 21:25:22 38° SE 21:27:21 67° ENE 21:32:36 10° N
USA 245 4.3 21:25:10 31° SSE 21:28:09 87° WSW 21:34:03 10° NNW
Geosat 4.3 21:27:47 10° NE 21:32:31 41° ESE 21:32:49 41° ESE
Okean-O 3.7 21:30:19 22° SSW 21:32:38 39° W 21:36:45 10° NNW
BREEZE-M DEB (TANK) 3.9 21:29:43 10° WNW 21:33:14 61° SSW 21:36:34 32° SE
Tsikada Rocket 4.0 21:27:06 10° N 21:33:17 81° W 21:36:32 30° S
Cosmos 2098 Rocket 4.3 21:34:55 30° E 21:34:57 30° E 21:39:06 10° NNE
Ariane Rocket 2.9 21:33:20 44° SSE 21:34:58 77° ENE 21:40:02 10° N
Aureole 3 Rocket 4.5 21:30:34 23° S 21:35:13 85° E 21:44:15 10° N
CZ-4C R/B 3.6 21:32:23 10° WSW 21:36:13 32° NW 21:41:00 10° NNE
SL-4 R/B 3.7 21:37:00 10° W 21:39:46 19° SW 21:39:46 19° SW
Cosmos 2360 Rocket 3.8 21:41:42 10° N 21:46:13 24° NE 21:48:24 19° E
Cosmos 2084 Rocket 3.4 21:42:28 10° NNW 21:46:40 69° NE 21:47:04 64° E
Cosmos 1437 Rocket 3.3 21:48:46 41° NE 21:48:46 41° NE 21:51:20 10° NNE
Gbstr 26 Del rocket 2.9 21:43:33 10° WNW 21:48:18 68° SW 21:48:34 66° SSW
Cosmos 1544 Rocket 3.4 21:49:36 67° S 21:50:11 87° E 21:54:33 10° N
BREEZE-M DEB (TANK) 4.1 21:50:22 10° WSW 21:52:51 27° WSW 21:52:51 27° WSW
USA 234 3.7 21:52:15 10° ENE 21:57:36 37° ESE 21:57:36 37° ESE
Cosmos 2237 4.2 21:54:15 10° NNW 22:00:00 79° WSW 22:01:26 52° S
Cosmos 2219 Rocket 4.0 21:58:47 10° N 22:02:59 21° NE 22:05:14 17° E
BREEZE-M DEB (TANK) 4.0 22:03:21 10° WNW 22:04:52 19° NW 22:04:52 19° NW
Cosmos 1992 Rocket 4.4 22:05:20 26° SW 22:08:12 59° WNW 22:13:22 10° NNE
Cosmos 1758 Rocket 3.7 22:04:07 10° NNW 22:08:27 62° W 22:08:49 59° WSW
Cosmos 909 Rocket 4.5 22:02:32 10° SW 22:08:50 61° NW 22:15:11 10° NNE
Cosmos 2082 Rocket 3.4 22:08:16 10° SW 22:13:37 40° WNW 22:18:59 10° NNE
Cosmos 2369 4.1 22:08:12 10° NNW 22:13:44 53° WSW 22:15:01 44° SSW
Cosmos 2322 Rocket 3.0 22:09:25 10° NNW 22:14:43 39° ENE 22:15:56 35° E
DELTA 2 R/B (1) 3.8 22:09:55 10° WSW 22:14:26 50° SSW 22:14:26 50° SSW
CZ-4B R/B 4.3 22:16:46 34° SW 22:17:44 37° W 22:22:10 10° NNW
ATLAS 3B R/B 4.4 22:13:12 10° WNW 22:18:53 23° WSW 22:22:12 17° SW
Cosmos 1464 Rocket 3.8 22:18:24 58° SSE 22:19:35 74° E 22:25:45 10° NNE
Cosmos 1375 Rocket 4.4 22:18:44 40° SSW 22:21:18 84° ESE 22:27:54 10° NE
Cosmos 1486 Rocket 4.3 22:18:29 10° NNW 22:23:38 54° ENE 22:24:02 53° E
Cosmos 1825 Rocket 4.1 22:20:03 10° N 22:23:40 48° NE 22:23:40 48° NE
ALOS 2 4.5 22:27:20 20° ENE 22:27:20 20° ENE 22:30:20 10° NNE
ARIANE 5 R/B 4.3 22:27:36 24° ENE 22:27:36 24° ENE 22:30:55 10° NNE
Meteor 1-5 Rocket 4.1 22:21:48 10° N 22:27:31 77° E 22:28:14 67° SE
Cosmos 2151 3.8 22:26:06 10° NNW 22:29:47 42° W 22:29:47 42° W
Cosmos 1602 Rocket 4.0 22:29:37 10° NNW 22:33:31 56° WNW 22:33:31 56° WNW
Cosmos 2278 3.6 22:29:23 10° NNW 22:35:08 76° ENE 22:35:41 70° ESE
Cosmos 1072 Rocket 4.5 22:33:48 53° SSW 22:35:21 78° W 22:41:42 10° N
COSMOS 2406 3.9 22:36:39 25° SW 22:39:46 51° WNW 22:45:23 10° NNE
SL-16 R/B 2.1 22:36:22 10° NNW 22:42:03 76° WSW 22:42:24 73° SSW
Cosmos 1092 Rocket 4.3 22:39:03 10° N 22:45:01 49° ENE 22:45:38 48° E
Helios 1A 3.7 22:41:27 10° N 22:44:23 47° N 22:44:23 47° N
Cosmos-2242 4.4 22:51:19 31° NE 22:51:19 31° NE 22:53:44 10° NNE
Cosmos 1428 Rocket 4.4 22:47:04 10° N 22:53:20 80° W 22:54:06 68° SSW
Helios 1B rocket 3.9 22:55:06 30° NNW 22:55:06 30° NNW 22:56:59 10° NNW
Cosmos 2034 Rocket 3.9 22:53:27 69° S 22:54:20 90° SE 23:00:45 10° N
ISS -1.1 22:54:10 10° WNW 22:56:46 20° N 22:57:24 19° N
Cosmos 2333 Rocket 2.3 22:51:57 10° NNW 22:57:36 65° WSW 22:57:41 65° WSW
Cosmos 1833 4.2 23:04:37 68° ENE 23:04:37 68° ENE 23:09:48 10° NNE
Meteor 2-2 Rocket 4.2 23:09:39 70° ENE 23:09:39 70° ENE 23:15:06 10° NNE
Cosmos 2297 Rocket 4.5 23:18:41 11° E 23:18:41 11° E 23:19:31 10° ENE
Cosmos 540 Rocket 3.6 23:18:15 69° NNE 23:18:15 69° NNE 23:22:47 10° NNE
Cosmos 1634 Rocket 3.8 23:22:44 82° SE 23:22:58 84° E 23:29:11 10° N
Cosmos 2279 Rocket 4.1 23:25:15 62° E 23:25:21 62° E 23:31:31 10° NNE
Cosmos 2333 4.2 23:20:32 10° NNW 23:25:59 76° WNW 23:25:59 76° WNW
NOSS 3-4 (A) 3.8 23:21:36 10° NW 23:28:31 78° WSW 23:29:36 67° S
NOSS 3-4 (C) 3.8 23:22:12 10° NW 23:29:09 79° WSW 23:30:16 66° S
Cosmos 2360 Rocket 2.5 23:25:01 10° NNW 23:30:08 58° W 23:30:08 58° W
Meteor 1-26 Rocket 4.5 23:37:51 56° W 23:37:54 56° WNW 23:43:25 10° N
USA 234 3.5 23:35:02 10° NE 23:41:31 68° NW 23:44:54 30° WSW
Cosmos 1763 Rocket 4.2 23:43:38 47° WNW 23:43:51 47° WNW 23:48:57 10° N
Cosmos 2219 Rocket 2.3 23:41:50 10° NNW 23:46:54 66° WNW 23:46:54 66° WNW
ARGOS Delta rocket 4.2 23:43:00 10° N 23:47:34 67° NW 23:47:34 67° NW
